Weather in Viborg

Denmark     56°27′17″N   9°23′07″E
В апреле 2022 года жителям России запретили посещать сайт meteo.paraplan.net по решению Генеральной прокуратуры. Аудитория сайта уменьшилась в 10 раз. Владельцы сайта не видят смысла в поддержке погодного сервера в таких условиях. Сайт будет закрыт в октябре.
temp.,
°C
wind,
m/s
gust,
m/s
humid.,
%
clouds,
%
prec.,
mm/h
press.,
hPa
HPBL,
m
29 september, thu
thu2923:00+10ne3796100 1.9 998425
02:00+11ene71384100 2.9 999740
05:00+10ne61282100 0.0 999572
08:00+10nne71284100 0.1 1001709
11:00+11nne71176100 0.0 10021195
14:00+12ne7107250 0.2 10031184
17:00+12ne7107144 0.4 10031172
20:00+9nne5117938 0.4 1005300
30 september, fri
fri3023:00+8nne4108751 0.0 1007251
02:00+10ne498494 0.0 1007361
05:00+9nne47887 0.0 1007183
08:00+7ne49945 0.0 1007171
11:00+14e457215 0.0 1007824
14:00+15s446092 0.2 10061374
17:00+13ssw4770100 0.0 1005362
20:00+9s4108622 0.1 1005225
1 october, sat
sat123:00+10s71583100 0.0 1003579
02:00+11sse81677100 0.0 1001577
05:00+11s81673100 0.0 999730
08:00+10sse101785100 0.8 9971019
11:00+10s71393100 1.8 997675
14:00+13ssw4687100 2.3 998525
17:00+14w46755 1.1 999810
20:00+10wsw48935 1.4 1001163
2 october, sun
sun223:00+9wsw4109549 0.0 1003238
02:00+9sw4119588 0.1 1004323
05:00+9wsw410943 0.0 1006226
08:00+8wsw4109447 0.0 1008226
11:00+13w697544 0.0 10091013
14:00+15w796213 0.0 10111383
17:00+14w69705 0.0 10121113
20:00+10w49895 0.1 1013214
3 october, mon
mon323:00+9w410925 0.0 1014241
02:00+10w512900 0.0 1015407
05:00+10wnw614885 0.0 1015568
08:00+11wnw7148919 0.0 1016705
11:00+14wnw812734 0.0 10171106
14:00+15wnw9136511 0.1 10171324
17:00+14wnw8157410 0.0 10171050
20:00+12wnw71586100 0.0 1018739